N9DMT-13 Weather Reports


time (UTC)temp
C
wind
direction
speed
KPH
gust
KPH
rain 1hr
cm
rain 24hr
cm
rain mn
cm
humidity
%
barometer
mb
20260503070329 3 7 0.0 0.0 0.00 0.00 0.00 91 979.4
20260503060321 2 8 0.0 0.0 0.00 0.00 0.00 91 980.0
20260503054818 2 8 0.0 0.0 0.00 0.00 0.00 91 980.2
20260503054317 2 8 0.0 0.0 0.00 0.00 0.00 90 980.2
20260503053817 2 8 0.0 0.0 0.00 0.00 0.00 90 980.3
20260503053316 2 8 0.0 0.0 0.00 0.00 0.00 89 980.3
20260503052815 2 8 0.0 0.0 0.00 0.00 0.00 89 980.2
20260503052315 2 8 0.0 0.0 0.00 0.00 0.00 88 980.2
20260503051814 3 8 0.0 0.0 0.00 0.00 0.00 88 980.3
20260503051313 3 8 0.0 0.0 0.00 0.00 0.00 89 980.3
20260503050812 3 8 0.0 0.0 0.00 0.00 0.00 89 980.5
20260503050312 3 8 0.0 0.0 0.00 0.00 0.00 88 980.4
20260503045811 3 8 0.0 0.0 0.00 0.00 0.00 88 980.4
20260503045310 3 8 0.0 0.0 0.00 0.00 0.00 87 980.5
20260503044809 3 8 0.0 0.0 0.00 0.00 0.00 87 980.5
20260503044309 3 8 0.0 0.0 0.00 0.00 0.00 87 980.4
20260503043808 3 8 0.0 0.0 0.00 0.00 0.00 87 980.5
20260503043307 3 8 0.0 0.0 0.00 0.00 0.00 86 980.7
20260503042806 3 8 0.0 0.0 0.00 0.00 0.00 86 980.7
20260503042306 3 9 0.0 0.0 0.00 0.00 0.00 86 980.7
20260503041805 3 9 0.0 0.0 0.00 0.00 0.00 86 980.6
20260503041304 3 9 0.0 0.0 0.00 0.00 0.00 86 981.0
20260503040804 3 9 0.0 0.0 0.00 0.00 0.00 86 980.9
20260503040303 3 9 0.0 0.0 0.00 0.00 0.00 86 980.9
20260503035802 3 9 0.0 0.0 0.00 0.00 0.00 86 981.0
20260503035304 3 9 0.0 0.0 0.00 0.00 0.00 86 981.0
20260503034801 4 9 0.0 0.0 0.00 0.00 0.00 85 981.1
20260503034300 4 9 0.0 0.0 0.00 0.00 0.00 85 981.2
20260503033759 4 9 0.0 0.0 0.00 0.00 0.00 84 981.2
20260503033259 4 9 0.0 0.0 0.00 0.00 0.00 84 981.1
20260503032758 4 9 0.0 0.0 0.00 0.00 0.00 84 981.2
20260503032257 5 9 0.0 0.0 0.00 0.00 0.00 83 981.3
20260503031757 5 9 0.0 0.0 0.00 0.00 0.00 83 981.2
20260503031256 5 9 0.0 0.0 0.00 0.00 0.00 81 981.2
20260503030755 5 9 0.0 0.0 0.00 0.00 0.00 81 981.4
20260503030254 5 9 0.0 0.0 0.00 0.00 0.00 81 981.3
20260503025753 5 9 0.0 0.0 0.00 0.00 0.00 81 981.3
20260503025252 5 9 0.0 0.0 0.00 0.00 0.00 81 981.4
20260503024752 6 9 0.0 0.0 0.00 0.00 0.00 79 981.3
20260503024251 6 8 0.0 0.0 0.00 0.00 0.00 78 981.2
20260503023750 6 8 0.0 0.0 0.00 0.00 0.00 78 981.5
20260503023249 6 9 0.0 0.0 0.00 0.00 0.00 78 981.4
20260503022748 6 9 0.0 0.0 0.00 0.00 0.00 78 981.4
20260503022247 6 9 0.0 0.0 0.00 0.00 0.00 76 981.5
20260503021746 6 9 0.0 0.0 0.00 0.00 0.00 76 981.4
20260503021246 6 9 0.0 0.0 0.00 0.00 0.00 76 981.6
20260503020745 7 9 0.0 0.0 0.00 0.00 0.00 74 981.5
20260503020244 7 9 0.0 0.0 0.00 0.00 0.00 73 981.3
20260503015743 7 8 0.0 0.0 0.00 0.00 0.00 72 981.3
20260503015243 7 9 0.0 0.0 0.00 0.00 0.00 73 981.3
20260503014742 7 9 0.0 0.0 0.00 0.00 0.00 70 981.4
20260503014241 8 9 0.0 0.0 0.00 0.00 0.00 69 981.3
20260503013740 8 9 0.0 0.0 0.00 0.00 0.00 65 981.3
20260503013240 8 9 0.0 0.0 0.00 0.00 0.00 64 981.3
20260503012739 9 9 0.0 0.0 0.00 0.00 0.00 65 981.3
20260503012238 9 12 0.0 0.0 0.00 0.00 0.00 61 981.2
20260503011738 10 12 0.0 0.0 0.00 0.00 0.00 58 981.2
20260503011237 10 12 0.0 0.0 0.00 0.00 0.00 55 981.2
20260503010736 10 12 0.0 0.0 0.00 0.00 0.00 56 981.3
20260503010235 11 14 0.0 0.0 0.00 0.00 0.00 52 981.1
20260503005735 11 17 0.0 0.0 0.00 0.00 0.00 51 981.4
20260503005234 12 2 0.0 0.0 0.00 0.00 0.00 46 981.2
20260503004733 12 11 0.0 0.0 0.00 0.00 0.00 47 981.3
20260503004232 13 9 0.0 0.0 0.00 0.00 0.00 40 981.2
20260503003731 13 8 0.0 0.0 0.00 0.00 0.00 39 981.5
20260503003230 13 356 0.0 0.0 0.00 0.00 0.00 40 981.3
20260503002729 13 24 0.0 0.0 0.00 0.00 0.00 36 981.4
20260503002228 13 348 0.0 0.0 0.00 0.00 0.00 36 981.4
20260503001726 14 342 0.0 0.0 0.00 0.00 0.00 37 981.4
20260503001226 14 9 0.0 0.0 0.00 0.00 0.00 35 981.7
20260503000725 14 2 0.0 0.0 0.00 0.00 0.00 35 981.5
20260503000225 14 17 0.0 0.0 0.00 0.00 0.00 35 981.6
20260502235724 15 19 0.0 0.0 0.00 0.00 0.00 35 981.6
20260502235222 15 359 0.0 0.0 0.00 0.00 0.00 35 981.5
20260502234722 15 354 0.0 0.0 0.00 0.00 0.00 34 981.7
20260502234221 15 287 0.0 0.0 0.00 0.00 0.00 35 981.7
20260502233720 15 277 1.6 1.6 0.00 0.00 0.00 33 981.5
20260502233220 15 333 1.6 3.2 0.00 0.00 0.00 33 981.7
20260502232719 15 292 3.2 4.8 0.00 0.00 0.00 33 981.7
20260502232219 15 286 1.6 3.2 0.00 0.00 0.00 32 981.8
20260502231718 16 6 0.0 0.0 0.00 0.00 0.00 31 981.8
20260502231217 16 330 1.6 1.6 0.00 0.00 0.00 31 981.8
20260502230716 16 253 0.0 1.6 0.00 0.00 0.00 32 982.0
20260502230215 16 293 0.0 0.0 0.00 0.00 0.00 35 982.0
20260502225715 16 314 0.0 1.6 0.00 0.00 0.00 33 982.2
20260502225214 16 10 0.0 0.0 0.00 0.00 0.00 31 982.1
20260502224713 16 288 1.6 1.6 0.00 0.00 0.00 32 982.0
20260502224212 16 322 1.6 1.6 0.00 0.00 0.00 31 982.1
20260502223711 16 1 0.0 0.0 0.00 0.00 0.00 31 982.2
20260502223211 16 263 4.8 4.8 0.00 0.00 0.00 32 982.3
20260502222710 16 330 0.0 0.0 0.00 0.00 0.00 33 982.3
20260502222209 16 356 3.2 4.8 0.00 0.00 0.00 32 982.3
20260502221708 16 301 1.6 1.6 0.00 0.00 0.00 31 982.4
20260502221208 17 22 0.0 0.0 0.00 0.00 0.00 31 982.4
20260502220707 17 316 0.0 1.6 0.00 0.00 0.00 31 982.5
20260502220206 17 348 0.0 0.0 0.00 0.00 0.00 32 982.6
20260502215706 16 11 0.0 0.0 0.00 0.00 0.00 33 982.6
20260502215205 16 260 4.8 4.8 0.00 0.00 0.00 31 982.5
20260502214704 16 304 3.2 3.2 0.00 0.00 0.00 33 982.6
20260502214204 16 292 3.2 9.7 0.00 0.00 0.00 31 982.7
20260502213703 17 328 0.0 0.0 0.00 0.00 0.00 32 982.7
20260502213202 16 286 0.0 0.0 0.00 0.00 0.00 33 982.7
20260502212701 16 255 1.6 3.2 0.00 0.00 0.00 31 982.8
20260502212201 17 236 1.6 3.2 0.00 0.00 0.00 32 982.9
20260502211700 16 27 3.2 4.8 0.00 0.00 0.00 34 982.9
20260502211159 15 228 0.0 1.6 0.00 0.00 0.00 33 983.0
20260502210659 15 335 0.0 0.0 0.00 0.00 0.00 33 983.1
20260502210158 16 276 1.6 3.2 0.00 0.00 0.00 32 983.1
20260502205657 15 306 3.2 4.8 0.00 0.00 0.00 34 983.1
20260502205156 16 2 0.0 1.6 0.00 0.00 0.00 31 983.0
20260502204655 16 252 0.0 0.0 0.00 0.00 0.00 31 983.1
20260502204155 16 12 0.0 0.0 0.00 0.00 0.00 31 983.3
20260502203653 17 333 0.0 0.0 0.00 0.00 0.00 30 983.3
20260502203153 17 201 3.2 4.8 0.00 0.00 0.00 32 983.4
20260502202652 17 4 0.0 0.0 0.00 0.00 0.00 30 983.6
20260502202151 16 256 0.0 0.0 0.00 0.00 0.00 33 983.6
20260502201650 15 206 0.0 1.6 0.00 0.00 0.00 34 983.7
20260502201150 16 338 3.2 4.8 0.00 0.00 0.00 32 983.7
20260502200649 16 347 0.0 0.0 0.00 0.00 0.00 30 983.6
20260502200148 15 344 3.2 6.4 0.00 0.00 0.00 33 983.7
20260502195647 15 325 3.2 4.8 0.00 0.00 0.00 33 984.0
20260502195146 15 289 1.6 1.6 0.00 0.00 0.00 34 984.0
20260502194646 15 349 1.6 3.2 0.00 0.00 0.00 35 984.1
20260502194145 15 243 3.2 4.8 0.00 0.00 0.00 32 984.4
20260502193644 15 283 1.6 3.2 0.00 0.00 0.00 34 984.4
20260502193143 15 293 0.0 0.0 0.00 0.00 0.00 33 984.4
20260502192643 15 325 3.2 4.8 0.00 0.00 0.00 33 984.5
20260502192142 15 295 1.6 1.6 0.00 0.00 0.00 35 984.2
20260502191641 15 312 1.6 3.2 0.00 0.00 0.00 31 984.5
20260502191140 14 313 0.0 1.6 0.00 0.00 0.00 34 984.7
20260502190640 14 334 1.6 1.6 0.00 0.00 0.00 37 984.6
20260502190139 15 2 8.0 12.9 0.00 0.00 0.00 31 984.8
20260502185638 15 240 1.6 3.2 0.00 0.00 0.00 34 984.7
20260502185138 16 265 3.2 3.2 0.00 0.00 0.00 34 984.8
20260502184637 16 13 1.6 3.2 0.00 0.00 0.00 34 985.1
20260502184136 15 292 1.6 3.2 0.00 0.00 0.00 35 984.8
20260502183636 16 300 3.2 4.8 0.00 0.00 0.00 33 984.9
20260502183135 15 338 0.0 1.6 0.00 0.00 0.00 35 985.0
20260502182635 16 358 1.6 4.8 0.00 0.00 0.00 31 985.1
20260502182134 15 233 9.7 11.3 0.00 0.00 0.00 32 985.2
20260502181633 15 356 9.7 12.9 0.00 0.00 0.00 34 985.1
20260502181132 14 11 0.0 0.0 0.00 0.00 0.00 37 985.3
20260502180632 14 246 3.2 4.8 0.00 0.00 0.00 37 985.5
20260502180131 14 354 0.0 0.0 0.00 0.00 0.00 38 985.5
20260502170121 15 319 0.0 0.0 0.00 0.00 0.00 33 985.9
20260502164118 15 259 0.0 0.0 0.00 0.00 0.00 35 985.9
20260502163617 14 279 1.6 4.8 0.00 0.00 0.00 36 986.2
20260502163117 13 68 0.0 0.0 0.00 0.00 0.00 38 986.2
20260502162616 13 260 4.8 9.7 0.00 0.00 0.00 37 986.3
20260502162115 13 222 6.4 6.4 0.00 0.00 0.00 35 986.6
20260502161614 14 350 3.2 4.8 0.00 0.00 0.00 35 986.6
20260502161113 13 205 3.2 6.4 0.00 0.00 0.00 37 986.4
20260502160613 13 348 4.8 6.4 0.00 0.00 0.00 35 986.4
20260502160112 13 359 9.7 17.7 0.00 0.00 0.00 37 986.5
20260502152106 12 275 0.0 0.0 0.00 0.00 0.00 40 987.1
20260502151605 12 266 0.0 3.2 0.00 0.00 0.00 41 987.1
20260502151105 12 290 0.0 0.0 0.00 0.00 0.00 41 986.8
20260502150604 12 237 3.2 4.8 0.00 0.00 0.00 42 986.8
20260502150103 12 340 0.0 0.0 0.00 0.00 0.00 43 986.8
20260502130546 4 43 0.0 0.0 0.00 0.00 0.00 72 987.7
20260502123541 0 42 0.0 0.0 0.00 0.00 0.00 86 987.7
20260502123040 0 41 0.0 0.0 0.00 0.00 0.00 86 987.7
20260502122540 0 34 0.0 0.0 0.00 0.00 0.00 87 988.0
20260502122039 0 14 0.0 0.0 0.00 0.00 0.00 87 987.7
20260502121538 0 13 0.0 0.0 0.00 0.00 0.00 88 987.7
20260502121038 0 14 0.0 0.0 0.00 0.00 0.00 89 987.8
20260502120537 0 15 0.0 0.0 0.00 0.00 0.00 90 987.9
20260502115536 0 15 0.0 0.0 0.00 0.00 0.00 92 987.7
20260502115035 -1 15 0.0 0.0 0.00 0.00 0.00 92 987.8
20260502114534 -1 9 0.0 0.0 0.00 0.00 0.00 92 987.6
20260502114034 -1 9 0.0 0.0 0.00 0.00 0.00 93 987.6
20260502113533 -1 9 0.0 0.0 0.00 0.00 0.00 93 987.5
20260502113032 -1 1 0.0 0.0 0.00 0.00 0.00 93 987.6
20260502112531 -1 28 0.0 0.0 0.00 0.00 0.00 94 987.3
20260502112031 -1 27 0.0 0.0 0.00 0.00 0.00 94 987.4
20260502111530 -1 35 0.0 0.0 0.00 0.00 0.00 94 987.4
20260502111029 -1 36 0.0 0.0 0.00 0.00 0.00 94 987.6
20260502110529 -2 32 0.0 0.0 0.00 0.00 0.00 94 987.5
20260502110028 -2 31 0.0 0.0 0.00 0.00 0.00 94 987.5
20260502105527 -2 32 0.0 0.0 0.00 0.00 0.00 93 987.5
20260502105027 -2 32 0.0 0.0 0.00 0.00 0.00 93 987.4
20260502104526 -2 32 0.0 0.0 0.00 0.00 0.00 93 987.6
20260502104025 -2 358 0.0 0.0 0.00 0.00 0.00 93 987.3
20260502103525 -2 358 0.0 0.0 0.00 0.00 0.00 93 987.4
20260502103024 -2 358 0.0 0.0 0.00 0.00 0.00 93 987.3
20260502102523 -2 358 0.0 0.0 0.00 0.00 0.00 93 987.4
20260502102023 -2 358 0.0 0.0 0.00 0.00 0.00 93 987.3
20260502101522 -2 358 0.0 0.0 0.00 0.00 0.00 93 987.4
20260502101021 -2 358 0.0 0.0 0.00 0.00 0.00 93 987.3
20260502100521 -2 358 0.0 0.0 0.00 0.00 0.00 93 987.3
20260502091514 -1 358 0.0 0.0 0.00 0.00 0.00 92 987.4
20260502091013 -1 358 0.0 0.0 0.00 0.00 0.00 92 987.3
20260502090512 -1 358 0.0 0.0 0.00 0.00 0.00 92 987.3
20260502071457 -2 358 0.0 0.0 0.00 0.00 0.00 91 987.4
20260502070956 -2 358 0.0 0.0 0.00 0.00 0.00 91 987.4